sat.trackr.live / text

‹ back to catalog

STARLINK-11166 [DTC]

NORAD 60062 · 2024-113D

PAYLOAD ACTIVE UNKNOWN

§ Identity

Operator
Country
US
Launch date
2024-06-19
Launch site
AFWTR
Launch vehicle
Mass (kg)
RCS (m²)

Purposes: comms

External: N2YO · Heavens-Above · Gunter

§ Orbital elements

Epoch: 2026-05-24T14:17:49.242912Z

Period
91.74 min
Inclination
53.1571°
Eccentricity
0.0000993
Mean motion
15.69713208 rev/d
Perigee alt
359.0 km
Apogee alt
360.4 km
Semi-major
6,737.9 km
B*
6.0688e-5
RAAN
176.9829°
Arg perigee
69.4203°
Mean anomaly
290.6922°
Rev number
11,148

§ Raw data

STARLINK-11166 [DTC]1 60062U 24113D   26144.59570883  .00006771  00000+0  60688-4 0  99992 60062  53.1571 176.9829 0000993  69.4203 290.6922 15.69713208111482

JSON: /api/v1/satellites/60062 · /tle

For live sub-satellite position, see the globe view (requires WebGL).

§ Visibility from observer

Set your observer location to see the next 7 days of passes ≥ 10°. The values pass through the URL so the page stays shareable.

No JS? Fill the form by hand. The geolocation button needs JavaScript.